contact:dominique.lefevre@mio.osupytheas.fr, maurice.libes@osupytheas.fr
Project:EMSO Ligure-ouest http://www.emso-fr.org/EMSO-France
Sensor Aquadopp, line 13 Serial AQD14315 
DOI : "https://doi.org/10.17882/74513; https://doi.org/10.17882/83244" 
Title:EMSO Ligure Ouest : Data ligne ALBATROSS capteur AQUADOPP - deploiement 2021
Id,Date,Profondeur,Latitude,Longitude,X_East,Y_North,Z_Up,Amplitude_X,Amplitude_Y,Amplitude_Z,Batterie,SoundSpeed,Heading,Pitch,Roll,Pressure,Temperature,Speed,Direction
, , m, degrees North, degrees East, m.s-1, m.s-1,m.s-1, 1, 1, 1, Volt, m.s-1, degree, degree, degree, dbar, degree_C, m.s-1, degree
11,2022-02-28T22:00:00,2200.0,42.79,6.0312,0.0,-0.025,-0.007,59.0,62.0,64.0,12.2,1504.2,320.7,-0.3,-0.4,2192.787,13.16,0.025,180.0
11,2022-02-28T22:30:00,2200.0,42.79,6.0312,-0.006,-0.025,0.0,56.0,63.0,66.0,12.2,1504.2,323.2,-0.2,-0.3,2192.773,13.16,0.025,193.5
11,2022-02-28T23:00:00,2200.0,42.79,6.0312,-0.001,-0.026,0.0,61.0,62.0,64.0,12.2,1504.2,326.6,-0.4,0.0,2192.741,13.16,0.026,182.2
11,2022-02-28T23:30:00,2200.0,42.79,6.0312,-0.006,-0.017,-0.003,60.0,60.0,67.0,12.2,1504.2,327.3,-0.1,-0.3,2192.701,13.16,0.018,199.4
11,2022-03-01T00:00:00,2200.0,42.79,6.0312,0.003,-0.016,-0.002,58.0,61.0,63.0,12.2,1504.2,329.5,-0.1,-0.3,2192.768,13.16,0.016,169.4
11,2022-03-01T00:30:00,2200.0,42.79,6.0312,0.006,-0.012,0.002,58.0,62.0,62.0,12.3,1504.2,328.8,-0.1,-0.1,2192.764,13.16,0.013,153.4
11,2022-03-01T01:00:00,2200.0,42.79,6.0312,-0.011,-0.012,0.013,61.0,63.0,68.0,12.2,1504.2,329.6,-0.1,-0.3,2192.706,13.16,0.016,222.5
11,2022-03-01T01:30:00,2200.0,42.79,6.0312,-0.011,-0.018,0.024,58.0,60.0,62.0,12.2,1504.2,331.6,-0.3,-0.3,2192.702,13.16,0.021,211.4
11,2022-03-01T02:00:00,2200.0,42.79,6.0312,0.002,-0.023,0.018,59.0,61.0,62.0,12.3,1504.2,327.6,0.0,-0.3,2192.812,13.16,0.023,175.0
11,2022-03-01T02:30:00,2200.0,42.79,6.0312,0.006,-0.022,-0.005,61.0,61.0,64.0,12.2,1504.2,327.0,-0.3,0.0,2192.752,13.16,0.022,164.7
11,2022-03-01T03:00:00,2200.0,42.79,6.0312,0.002,-0.021,0.007,59.0,61.0,66.0,12.2,1504.2,328.8,-0.2,-0.3,2192.81,13.16,0.021,174.6
11,2022-03-01T03:30:00,2200.0,42.79,6.0312,0.0,-0.028,0.002,60.0,58.0,63.0,12.2,1504.2,330.0,0.0,-0.1,2192.851,13.16,0.028,180.0
11,2022-03-01T04:00:00,2200.0,42.79,6.0312,0.007,-0.011,-0.006,56.0,61.0,62.0,12.2,1504.2,330.9,0.0,-0.2,2192.891,13.16,0.013,147.5
11,2022-03-01T04:30:00,2200.0,42.79,6.0312,0.009,-0.018,0.013,62.0,62.0,66.0,12.2,1504.2,343.3,-0.2,-0.2,2192.915,13.16,0.02,153.4
11,2022-03-01T05:00:00,2200.0,42.79,6.0312,0.005,-0.019,-0.009,61.0,62.0,61.0,12.2,1504.2,354.3,-0.4,0.0,2192.976,13.16,0.019,165.3
11,2022-03-01T05:30:00,2200.0,42.79,6.0312,0.014,-0.023,-0.011,53.0,59.0,63.0,12.2,1504.2,350.3,-0.3,-0.1,2192.974,13.16,0.026,148.7
11,2022-03-01T06:00:00,2200.0,42.79,6.0312,0.011,-0.03,-0.009,58.0,61.0,63.0,12.2,1504.2,340.5,0.0,-0.2,2192.967,13.16,0.031,159.9
11,2022-03-01T06:30:00,2200.0,42.79,6.0312,-0.006,-0.012,0.003,65.0,59.0,60.0,12.2,1504.2,332.8,-0.1,0.0,2192.973,13.16,0.013,206.6
11,2022-03-01T07:00:00,2200.0,42.79,6.0312,0.009,-0.007,-0.003,56.0,61.0,60.0,12.2,1504.2,334.3,0.0,-0.3,2193.013,13.16,0.011,127.9
11,2022-03-01T07:30:00,2200.0,42.79,6.0312,0.009,-0.014,-0.006,58.0,61.0,65.0,12.2,1504.2,329.0,-0.2,-0.3,2193.002,13.16,0.016,147.3
11,2022-03-01T08:00:00,2200.0,42.79,6.0312,0.009,-0.02,-0.005,60.0,61.0,66.0,12.2,1504.2,325.8,0.0,-0.2,2192.988,13.16,0.021,155.8
11,2022-03-01T08:30:00,2200.0,42.79,6.0312,0.008,-0.017,0.016,63.0,62.0,62.0,12.2,1504.2,315.0,-0.1,-0.1,2192.994,13.16,0.018,154.8
11,2022-03-01T09:00:00,2200.0,42.79,6.0312,0.016,-0.01,0.012,57.0,62.0,63.0,12.2,1504.2,310.9,-0.2,-0.3,2193.008,13.16,0.018,122.0
11,2022-03-01T09:30:00,2200.0,42.79,6.0312,0.006,0.005,-0.014,62.0,63.0,63.0,12.2,1504.2,306.1,-0.4,-0.4,2192.987,13.16,0.007,50.2
11,2022-03-01T10:00:00,2200.0,42.79,6.0312,0.024,-0.02,0.002,59.0,61.0,62.0,12.2,1504.2,308.6,-0.1,-0.1,2192.925,13.16,0.031,129.8
11,2022-03-01T10:30:00,2200.0,42.79,6.0312,0.014,-0.018,0.005,58.0,61.0,62.0,12.2,1504.2,308.7,0.0,-0.4,2192.895,13.16,0.022,142.1
11,2022-03-01T11:00:00,2200.0,42.79,6.0312,0.022,-0.011,0.017,58.0,60.0,60.0,12.2,1504.2,305.8,-0.1,-0.1,2192.878,13.16,0.024,116.6
11,2022-03-01T11:30:00,2200.0,42.79,6.0312,0.025,-0.015,0.017,56.0,60.0,61.0,12.2,1504.2,309.5,-0.1,-0.1,2192.852,13.16,0.029,121.0
11,2022-03-01T12:00:00,2200.0,42.79,6.0312,0.022,-0.026,0.008,55.0,58.0,61.0,12.2,1504.2,306.6,-0.4,-0.4,2192.805,13.16,0.034,139.8
11,2022-03-01T12:30:00,2200.0,42.79,6.0312,0.022,-0.009,0.011,56.0,60.0,59.0,12.2,1504.2,311.0,0.0,-0.4,2192.769,13.16,0.023,112.2
11,2022-03-01T13:00:00,2200.0,42.79,6.0312,0.02,-0.014,0.004,58.0,61.0,63.0,12.2,1504.2,312.8,-0.4,-0.3,2192.776,13.16,0.024,125.0
11,2022-03-01T13:30:00,2200.0,42.79,6.0312,0.009,-0.022,0.01,56.0,59.0,59.0,12.2,1504.2,319.2,-0.3,-0.2,2192.801,13.16,0.023,157.8
11,2022-03-01T14:00:00,2200.0,42.79,6.0312,-0.007,-0.029,-0.002,57.0,61.0,64.0,12.2,1504.2,327.0,-0.4,0.0,2192.767,13.16,0.029,193.6
11,2022-03-01T14:30:00,2200.0,42.79,6.0312,0.017,-0.027,0.001,58.0,64.0,64.0,12.2,1504.2,335.5,-0.3,-0.2,2192.75,13.16,0.031,147.8
11,2022-03-01T15:00:00,2200.0,42.79,6.0312,0.019,-0.019,0.019,61.0,63.0,63.0,12.2,1504.2,350.4,-0.3,0.0,2192.782,13.16,0.026,135.0
11,2022-03-01T15:30:00,2200.0,42.79,6.0312,0.014,-0.013,0.01,60.0,62.0,64.0,12.2,1504.2,355.8,-0.2,-0.4,2192.802,13.16,0.019,132.9
11,2022-03-01T16:00:00,2200.0,42.79,6.0312,0.012,-0.025,0.0,63.0,65.0,62.0,12.2,1504.2,9.0,-0.1,0.0,2192.809,13.16,0.027,154.4
11,2022-03-01T17:00:00,2200.0,42.79,6.0312,0.014,-0.009,0.01,59.0,64.0,62.0,12.2,1504.2,43.9,0.0,-0.2,2192.857,13.16,0.016,122.7
11,2022-03-01T17:30:00,2200.0,42.79,6.0312,0.02,-0.011,0.0,60.0,61.0,62.0,12.2,1504.2,33.5,-0.2,-0.1,2192.856,13.16,0.022,118.8
11,2022-03-01T18:00:00,2200.0,42.79,6.0312,0.01,-0.001,0.003,61.0,61.0,62.0,12.2,1504.2,49.6,-0.1,0.0,2192.861,13.16,0.01,95.7
11,2022-03-01T18:30:00,2200.0,42.79,6.0312,0.022,-0.01,0.0,58.0,59.0,63.0,12.2,1504.2,58.7,-0.3,0.1,2192.87,13.16,0.024,114.4
11,2022-03-01T19:00:00,2200.0,42.79,6.0312,0.011,0.01,0.001,58.0,61.0,62.0,12.2,1504.2,70.0,-0.2,0.2,2192.873,13.16,0.014,47.7
11,2022-03-01T19:30:00,2200.0,42.79,6.0312,-0.001,0.011,0.021,58.0,60.0,60.0,12.2,1504.2,74.3,-0.3,-0.1,2192.871,13.16,0.011,354.8
11,2022-03-01T20:00:00,2200.0,42.79,6.0312,0.016,-0.003,0.02,60.0,59.0,62.0,12.2,1504.2,87.3,-0.2,-0.1,2192.83,13.16,0.016,100.6
11,2022-03-01T20:30:00,2200.0,42.79,6.0312,0.023,0.001,0.017,57.0,62.0,61.0,12.2,1504.2,77.8,-0.3,-0.1,2192.87,13.16,0.023,87.5
11,2022-03-01T21:00:00,2200.0,42.79,6.0312,0.029,0.002,0.009,59.0,62.0,64.0,12.2,1504.2,77.2,0.0,-0.1,2192.82,13.16,0.029,86.1
